Cut Bank, MT

7:55 AM MDT on August 29, 2016 (GMT -0600)
Cut Bank Municipal

Weather History for KCTB - June, 2013

Change the Weather History Date:

Saturday, June 22, 2013

  Actual Average Record
Temperature  
Mean Temperature 55 °F 59 °F  
Max Temperature 69 °F 72 °F 96 °F (1919)
Min Temperature 40 °F 46 °F 34 °F (1942)
Degree Days  
Heating Degree Days 10 6  
Month to date heating degree days 195 188  
Since 1 June heating degree days 195 188  
Since 1 July heating degree days 8227 8476  
Cooling Degree Days 0 1  
Month to date cooling degree days 0 6  
Year to date cooling degree days 2 8  
Since 1 June cooling degree days 0 6  
Growing Degree Days 4 (Base 50)    
Moisture  
Dew Point 41 °F    
Average Humidity 64    
Maximum Humidity 96    
Minimum Humidity 32    
Precipitation  
Precipitation 0.06 in 0.07 in 1.24 in (1996)
Month to date precipitation 2.02 2.01  
Year to date precipitation 6.61 5.65  
Snow  
Snow 0.00 in - - ()
Snow Depth 0.00 in    
Sea Level Pressure  
Sea Level Pressure 29.96 in    
Wind  
Wind Speed 6 mph (West)    
Max Wind Speed 24 mph    
Max Gust Speed 33 mph    
Visibility 10 miles    
Events Rain    
T = Trace of Precipitation, MM = Missing Value Source: NWS Daily Summary

Daily Weather History Graph

Daily Weather History Graph

Search for Another Location

Airport or City:

Trip Planner

Search our weather history database for the weather conditions in past years. The results will help you decide how hot, cold, wet, or windy it might be!

Date:

Astronomy

Jun. 22, 2013 Rise Set
Actual Time 5:27 AM MDT 9:35 PM MDT
Civil Twilight 4:45 AM MDT 10:18 PM MDT
Nautical Twilight 3:45 AM MDT 11:17 PM MDT
Astronomical Twilight 2:03 AM MDT 12:59 AM MDT
Moon 8:48 PM MDT (6/22) 4:49 AM MDT (6/22)
Length of Visible Light 17h 32m
Length of Day
16h 08m
Waxing Gibbous, 99% of the Moon is Illuminated
Jun 22
Waxing Gibbous
Jun 23
Full
Jun 29
Last Quarter
Jul 8
New
Jul 15
First Quarter

Hourly Weather History & Observations

Time (MDT) Temp. Windchill Dew Point Humidity Pressure Visibility Wind Dir Wind Speed Gust Speed Precip Events Conditions
12:56 AM 43.0 °F 40.3 °F 41.0 °F 93% 30.05 in 10.0 mi WNW 4.6 mph - N/A   Clear
1:56 AM 45.0 °F - 42.1 °F 90% 30.04 in 10.0 mi Calm Calm - N/A   Clear
2:56 AM 43.0 °F 41.3 °F 39.9 °F 89% 30.03 in 10.0 mi WNW 3.5 mph - N/A   Clear
3:56 AM 41.0 °F 36.4 °F 39.0 °F 93% 30.03 in 10.0 mi WSW 6.9 mph - N/A   Clear
4:56 AM 43.0 °F 40.3 °F 39.9 °F 89% 30.02 in 10.0 mi WSW 4.6 mph - N/A   Clear
5:56 AM 45.0 °F - 41.0 °F 86% 30.01 in 10.0 mi Calm Calm - N/A   Scattered Clouds
6:56 AM 46.9 °F - 43.0 °F 86% 30.01 in 10.0 mi Calm Calm - N/A   Mostly Cloudy
7:56 AM 52.0 °F - 45.0 °F 77% 30.01 in 10.0 mi WSW 5.8 mph - N/A   Mostly Cloudy
8:56 AM 55.0 °F - 42.1 °F 62% 30.00 in 10.0 mi WSW 8.1 mph - N/A   Clear
9:56 AM 59.0 °F - 41.0 °F 51% 29.99 in 10.0 mi NW 6.9 mph - N/A   Clear
10:56 AM 61.0 °F - 39.9 °F 46% 29.99 in 10.0 mi West 4.6 mph - N/A   Clear
11:56 AM 60.1 °F - 41.0 °F 49% 29.99 in 10.0 mi WNW 8.1 mph - N/A   Mostly Cloudy
12:56 PM 64.0 °F - 37.9 °F 38% 29.97 in 10.0 mi West 6.9 mph - N/A   Partly Cloudy
1:56 PM 66.9 °F - 39.0 °F 36% 29.94 in 10.0 mi SSW 8.1 mph - N/A   Scattered Clouds
2:56 PM 66.9 °F - 37.0 °F 33% 29.93 in 10.0 mi WNW 6.9 mph - N/A   Scattered Clouds
3:56 PM 66.0 °F - 37.9 °F 36% 29.92 in 10.0 mi West 4.6 mph - N/A   Clear
4:56 PM 64.0 °F - 37.9 °F 38% 29.91 in 10.0 mi WSW 8.1 mph - N/A   Clear
5:56 PM 68.0 °F - 37.9 °F 33% 29.87 in 10.0 mi West 12.7 mph 17.3 mph N/A   Clear
6:56 PM 64.0 °F - 41.0 °F 43% 29.88 in 10.0 mi WSW 5.8 mph - N/A   Mostly Cloudy
7:56 PM 63.0 °F - 41.0 °F 45% 29.88 in 10.0 mi WSW 10.4 mph - N/A   Overcast
8:17 PM 57.2 °F - 42.8 °F 59% 29.94 in 4.0 mi North 11.5 mph 33.4 mph 0.05 in Rain Heavy Rain
8:56 PM 59.0 °F - 46.0 °F 62% 29.90 in 10.0 mi West 5.8 mph - 0.06 in   Overcast
9:56 PM 55.0 °F - 45.0 °F 69% 29.93 in 10.0 mi NW 6.9 mph - N/A   Mostly Cloudy
10:56 PM 55.0 °F - 46.0 °F 72% 29.94 in 10.0 mi NNE 5.8 mph - N/A   Overcast
11:56 PM 53.1 °F - 46.0 °F 77% 29.93 in 10.0 mi SSE 6.9 mph - N/A   Scattered Clouds